K0SNA Weather Reports


Display with metric or nautical units.
time (UTC)temp
F
wind
direction
speed
MPH
gust
MPH
rain 1hr
in
rain 24hr
in
rain mn
in
humidity
%
barometer
mb
20260901192156 87 266 1.0 2.0 0.00 0.00 0.00 47 1013.9
20260901191652 87 214 0.0 0.0 0.00 0.00 0.00 46 1014.0
20260901191148 86 216 1.0 5.0 0.00 0.00 0.00 46 1014.0
20260901190644 87 227 2.0 2.0 0.00 0.00 0.00 46 1014.0
20260901190143 87 218 1.0 3.0 0.00 0.00 0.00 46 1014.0
20260901185641 87 240 2.0 5.0 0.00 0.00 0.00 47 1013.8
20260901185139 87 239 2.0 2.0 0.00 0.00 0.00 47 1014.0
20260901184635 89 219 1.0 2.0 0.00 0.00 0.00 46 1013.9
20260901184125 90 204 1.0 2.0 0.00 0.00 0.00 44 1013.9
20260901183620 88 233 2.0 2.0 0.00 0.00 0.00 47 1013.7
20260901183115 87 200 0.0 2.0 0.00 0.00 0.00 50 1013.9
20260901182611 89 204 2.0 5.0 0.00 0.00 0.00 49 1014.0
20260901182110 88 95 0.0 0.0 0.00 0.00 0.00 48 1014.1
20260901181605 86 92 0.0 1.0 0.00 0.00 0.00 50 1014.1
20260901181104 86 85 2.0 3.0 0.00 0.00 0.00 49 1014.4
20260901180604 86 256 1.0 3.0 0.00 0.00 0.00 51 1014.5
20260901180058 86 236 2.0 2.0 0.00 0.00 0.00 51 1014.4
20260901175551 87 206 1.0 1.0 0.00 0.00 0.00 50 1014.6
20260901175045 87 200 1.0 3.0 0.00 0.00 0.00 49 1014.6
20260901174542 87 193 1.0 1.0 0.00 0.00 0.00 49 1014.6
20260901174038 87 215 2.0 3.0 0.00 0.00 0.00 51 1014.6
20260901173532 87 214 1.0 3.0 0.00 0.00 0.00 49 1014.6
20260901173028 87 216 1.0 3.0 0.00 0.00 0.00 50 1014.7
20260901172524 86 191 1.0 3.0 0.00 0.00 0.00 50 1015.0
20260901172022 86 208 2.0 6.0 0.00 0.00 0.00 50 1014.8
20260901171521 86 54 2.0 3.0 0.00 0.00 0.00 50 1014.8
20260901171020 87 92 1.0 1.0 0.00 0.00 0.00 49 1014.8
20260901170514 86 242 3.0 3.0 0.00 0.00 0.00 48 1014.9
20260901170009 86 277 0.0 2.0 0.00 0.00 0.00 51 1015.0
20260901165503 86 178 1.0 1.0 0.00 0.00 0.00 50 1015.0
20260901164958 86 193 0.0 2.0 0.00 0.00 0.00 50 1015.2
20260901164454 84 207 2.0 5.0 0.00 0.00 0.00 52 1015.0
20260901163949 84 195 0.0 5.0 0.00 0.00 0.00 54 1015.0
20260901163444 85 210 3.0 3.0 0.00 0.00 0.00 53 1015.0
20260901162943 85 136 1.0 2.0 0.00 0.00 0.00 54 1014.8
20260901162438 84 201 1.0 5.0 0.00 0.00 0.00 56 1015.1
20260901161937 83 203 2.0 3.0 0.00 0.00 0.00 56 1015.0
20260901161437 83 197 0.0 3.0 0.00 0.00 0.00 57 1015.0
20260901160932 84 190 1.0 2.0 0.00 0.00 0.00 56 1014.9
20260901160428 83 137 0.0 2.0 0.00 0.00 0.00 58 1015.0
20260901155927 82 125 1.0 2.0 0.00 0.00 0.00 60 1014.8
20260901155421 80 81 0.0 0.0 0.00 0.00 0.00 62 1014.8
20260901154918 81 198 1.0 2.0 0.00 0.00 0.00 59 1014.8
20260901154417 81 189 0.0 2.0 0.00 0.00 0.00 60 1014.8
20260901153912 80 186 0.0 1.0 0.00 0.00 0.00 63 1015.0
20260901153412 79 199 0.0 2.0 0.00 0.00 0.00 64 1015.0
20260901152906 79 207 0.0 1.0 0.00 0.00 0.00 64 1015.0
20260901152401 79 220 0.0 0.0 0.00 0.00 0.00 65 1015.0
20260901151856 79 226 1.0 2.0 0.00 0.00 0.00 64 1014.9
20260901151356 80 201 1.0 1.0 0.00 0.00 0.00 63 1015.0
20260901150855 78 194 0.0 0.0 0.00 0.00 0.00 64 1015.0
20260901150353 78 241 2.0 2.0 0.00 0.00 0.00 65 1015.1
20260901145850 77 199 0.0 2.0 0.00 0.00 0.00 67 1015.2
20260901145350 77 184 0.0 1.0 0.00 0.00 0.00 69 1015.5
20260901144846 76 257 2.0 3.0 0.00 0.00 0.00 70 1015.3
20260901144341 75 208 2.0 2.0 0.00 0.00 0.00 71 1015.2
20260901143836 75 195 1.0 5.0 0.00 0.00 0.00 72 1015.3
20260901143332 75 197 1.0 2.0 0.00 0.00 0.00 72 1015.2
20260901142829 75 274 3.0 3.0 0.00 0.00 0.00 72 1015.4
20260901142328 74 231 3.0 6.0 0.00 0.00 0.00 73 1015.4
20260901141823 74 189 0.0 2.0 0.00 0.00 0.00 74 1015.3
20260901141318 73 205 2.0 3.0 0.00 0.00 0.00 76 1015.5
20260901140817 72 197 1.0 2.0 0.00 0.00 0.00 78 1015.4
20260901140315 72 203 4.0 5.0 0.00 0.00 0.00 79 1015.4
20260901135810 71 215 1.0 3.0 0.00 0.00 0.00 82 1015.4
20260901135305 70 201 1.0 2.0 0.00 0.00 0.00 84 1015.4
20260901134801 69 206 1.0 3.0 0.00 0.00 0.00 85 1015.2
20260901134300 69 202 1.0 3.0 0.00 0.00 0.00 87 1015.5
20260901133755 68 194 2.0 2.0 0.00 0.00 0.00 88 1015.4
20260901133254 68 205 0.0 1.0 0.00 0.00 0.00 89 1015.6
20260901132753 68 204 0.0 0.0 0.00 0.00 0.00 88 1015.4
20260901132248 68 202 0.0 1.0 0.00 0.00 0.00 88 1015.7
20260901131743 68 199 0.0 0.0 0.00 0.00 0.00 88 1015.6
20260901131242 68 202 0.0 1.0 0.00 0.00 0.00 89 1015.6
20260901130737 67 201 0.0 2.0 0.00 0.00 0.00 90 1015.2
20260901130236 67 200 0.0 2.0 0.00 0.00 0.00 91 1015.3
20260901125734 66 200 0.0 2.0 0.00 0.00 0.00 93 1015.3
20260901125224 66 202 1.0 2.0 0.00 0.00 0.00 94 1015.2
20260901124719 65 212 0.0 0.0 0.00 0.00 0.00 95 1015.1
20260901124218 65 213 0.0 0.0 0.00 0.00 0.00 95 1015.2
20260901123713 65 211 0.0 0.0 0.00 0.00 0.00 96 1015.1
20260901123208 65 210 0.0 0.0 0.00 0.00 0.00 96 1015.2
20260901122706 65 214 0.0 0.0 0.00 0.00 0.00 96 1015.3
20260901122201 64 221 0.0 0.0 0.00 0.00 0.00 96 1015.2
20260901121655 64 217 0.0 0.0 0.00 0.00 0.00 96 1015.1
20260901121151 64 213 0.0 0.0 0.00 0.00 0.00 97 1015.0
20260901120650 64 213 0.0 0.0 0.00 0.00 0.00 97 1015.2
20260901120146 64 206 0.0 0.0 0.00 0.00 0.00 97 1014.9
20260901115641 64 223 0.0 0.0 0.00 0.00 0.00 97 1015.0
20260901115137 64 217 0.0 0.0 0.00 0.00 0.00 97 1014.8
20260901114634 64 220 0.0 0.0 0.00 0.00 0.00 97 1014.8
20260901114132 64 212 0.0 0.0 0.00 0.00 0.00 97 1014.5
20260901113631 64 217 0.0 0.0 0.00 0.00 0.00 97 1014.7
20260901113127 64 217 0.0 0.0 0.00 0.00 0.00 97 1014.7
20260901112621 64 221 0.0 0.0 0.00 0.00 0.00 97 1014.5
20260901112115 64 204 0.0 0.0 0.00 0.00 0.00 97 1014.3
20260901111615 64 204 0.0 0.0 0.00 0.00 0.00 97 1014.4
20260901111113 64 210 0.0 0.0 0.00 0.00 0.00 97 1014.1
20260901110609 64 211 0.0 0.0 0.00 0.00 0.00 97 1014.1
20260901110104 64 211 0.0 0.0 0.00 0.00 0.00 97 1014.2
20260901105601 64 207 0.0 0.0 0.00 0.00 0.00 97 1014.1
20260901105054 64 207 0.0 0.0 0.00 0.00 0.00 97 1014.1
20260901104551 64 208 0.0 0.0 0.00 0.00 0.00 97 1014.0
20260901104045 64 214 0.0 0.0 0.00 0.00 0.00 97 1014.2
20260901103540 64 206 0.0 0.0 0.00 0.00 0.00 97 1014.0
20260901103036 64 206 0.0 0.0 0.00 0.00 0.00 97 1013.9
20260901102535 64 206 0.0 0.0 0.00 0.00 0.00 96 1013.9
20260901102025 64 206 0.0 0.0 0.00 0.00 0.00 96 1013.8
20260901101521 64 206 0.0 0.0 0.00 0.00 0.00 96 1013.8
20260901101020 64 206 0.0 0.0 0.00 0.00 0.00 96 1013.8
20260901100514 64 206 0.0 0.0 0.00 0.00 0.00 96 1013.9
20260901100013 64 206 0.0 0.0 0.00 0.00 0.00 96 1014.0
20260901095512 64 206 0.0 0.0 0.00 0.00 0.00 96 1013.9
20260901095010 64 213 0.0 0.0 0.00 0.00 0.00 96 1014.0
20260901094505 64 213 0.0 0.0 0.00 0.00 0.00 96 1014.0
20260901094004 64 214 0.0 0.0 0.00 0.00 0.00 96 1013.8
20260901093504 64 214 0.0 0.0 0.00 0.00 0.00 96 1014.1
20260901092959 64 214 0.0 0.0 0.00 0.00 0.00 96 1013.7
20260901092455 65 214 0.0 0.0 0.00 0.00 0.00 96 1014.0
20260901091951 64 214 0.0 0.0 0.00 0.00 0.00 96 1014.0
20260901091446 64 213 0.0 0.0 0.00 0.00 0.00 96 1013.7
20260901090941 65 214 0.0 0.0 0.00 0.00 0.00 96 1013.9
20260901090441 65 214 0.0 0.0 0.00 0.00 0.00 96 1013.8
20260901085936 64 214 0.0 0.0 0.00 0.00 0.00 96 1013.9
20260901085432 64 202 0.0 0.0 0.00 0.00 0.00 96 1013.9
20260901084928 64 202 0.0 0.0 0.00 0.00 0.00 96 1013.7
20260901084424 64 202 0.0 0.0 0.00 0.00 0.00 95 1014.1
20260901083919 64 202 0.0 0.0 0.00 0.00 0.00 95 1013.9
20260901083414 64 202 0.0 0.0 0.00 0.00 0.00 95 1013.9
20260901082912 65 202 0.0 0.0 0.00 0.00 0.00 95 1013.8
20260901082407 64 202 0.0 0.0 0.00 0.00 0.00 95 1013.7
20260901081902 65 202 0.0 0.0 0.00 0.00 0.00 95 1013.8
20260901081357 65 202 0.0 0.0 0.00 0.00 0.00 95 1013.9
20260901080857 65 202 0.0 0.0 0.00 0.00 0.00 94 1013.9
20260901080352 65 202 0.0 0.0 0.00 0.00 0.00 94 1014.0
20260901075846 65 202 0.0 0.0 0.00 0.00 0.00 94 1014.0
20260901075341 65 202 0.0 0.0 0.00 0.00 0.00 94 1014.0
20260901074836 65 202 0.0 0.0 0.00 0.00 0.00 94 1013.8
20260901074331 65 202 0.0 0.0 0.00 0.00 0.00 94 1013.9
20260901073826 66 201 0.0 0.0 0.00 0.00 0.00 94 1013.8
20260901073322 66 201 0.0 0.0 0.00 0.00 0.00 94 1013.9
20260901072818 66 201 0.0 0.0 0.00 0.00 0.00 94 1013.7
20260901072317 66 201 0.0 0.0 0.00 0.00 0.00 93 1013.8
20260901071813 66 201 0.0 0.0 0.00 0.00 0.00 93 1013.9
20260901071311 66 206 0.0 0.0 0.00 0.00 0.00 93 1014.0
20260901070810 66 206 0.0 0.0 0.00 0.00 0.00 93 1014.3
20260901070306 66 206 0.0 0.0 0.00 0.00 0.00 92 1014.1
20260901065805 66 206 0.0 0.0 0.00 0.00 0.00 92 1014.3
20260901065300 67 206 0.0 0.0 0.00 0.00 0.00 92 1014.3
20260901064756 67 206 0.0 0.0 0.00 0.00 0.00 92 1014.4
20260901064252 67 206 0.0 0.0 0.00 0.00 0.00 91 1014.2
20260901063750 67 206 0.0 0.0 0.00 0.00 0.00 91 1014.3
20260901063245 68 217 0.0 0.0 0.00 0.00 0.00 92 1014.4
20260901062741 68 223 0.0 0.0 0.00 0.00 0.00 92 1014.5
20260901062237 67 223 0.0 1.0 0.00 0.00 0.00 92 1014.4
20260901061733 67 213 0.0 1.0 0.00 0.00 0.00 92 1014.5
20260901061232 67 224 0.0 0.0 0.00 0.00 0.00 92 1014.4
20260901060728 67 223 0.0 0.0 0.00 0.00 0.00 92 1014.2
20260901060223 67 223 0.0 0.0 0.00 0.00 0.00 92 1014.1
20260901055718 68 223 0.0 0.0 0.00 0.00 0.00 91 1014.2
20260901055215 68 223 0.0 0.0 0.00 0.00 0.00 91 1014.1
20260901054712 68 223 0.0 0.0 0.00 0.00 0.00 91 1014.3
20260901054208 68 223 0.0 0.0 0.00 0.00 0.00 91 1014.0
20260901053703 68 223 0.0 0.0 0.00 0.00 0.00 91 1013.9
20260901053153 68 223 0.0 0.0 0.00 0.00 0.00 91 1014.0
20260901052648 68 223 0.0 0.0 0.00 0.00 0.00 90 1014.0
20260901052144 68 223 0.0 0.0 0.00 0.00 0.00 90 1013.9
20260901051643 68 223 0.0 0.0 0.00 0.00 0.00 90 1013.9
20260901051142 68 223 0.0 0.0 0.00 0.00 0.00 90 1013.8
20260901050638 68 223 0.0 0.0 0.00 0.00 0.00 90 1013.8
20260901050132 68 223 0.0 0.0 0.00 0.00 0.00 90 1013.5
20260901045627 69 223 0.0 0.0 0.00 0.00 0.00 89 1013.8
20260901045122 69 223 0.0 0.0 0.00 0.00 0.00 89 1013.5
20260901044618 69 223 0.0 0.0 0.00 0.00 0.00 89 1013.4
20260901044114 69 223 0.0 0.0 0.00 0.00 0.00 88 1013.2
20260901043609 69 223 0.0 0.0 0.00 0.00 0.00 88 1013.3
20260901043105 69 223 0.0 0.0 0.00 0.00 0.00 88 1013.2
20260901042604 69 223 0.0 0.0 0.00 0.00 0.00 87 1013.0
20260901042059 69 223 0.0 0.0 0.00 0.00 0.00 87 1013.2
20260901041554 70 223 0.0 0.0 0.00 0.00 0.00 87 1013.3
20260901041049 70 223 0.0 0.0 0.00 0.00 0.00 86 1013.3
20260901040548 70 223 0.0 0.0 0.00 0.00 0.00 86 1013.3
20260901040043 70 223 0.0 0.0 0.00 0.00 0.00 85 1013.4
20260901035541 70 223 0.0 0.0 0.00 0.00 0.00 85 1013.4
20260901035039 71 223 0.0 0.0 0.00 0.00 0.00 85 1013.5
20260901034534 71 224 0.0 0.0 0.00 0.00 0.00 84 1013.4
20260901034029 71 224 0.0 0.0 0.00 0.00 0.00 84 1013.4
20260901033528 71 224 0.0 0.0 0.00 0.00 0.00 83 1013.4
20260901033028 72 224 0.0 0.0 0.00 0.00 0.00 82 1013.5
20260901032527 72 224 0.0 0.0 0.00 0.00 0.00 81 1013.2
20260901032022 73 224 0.0 0.0 0.00 0.00 0.00 80 1013.3
20260901031517 73 224 0.0 0.0 0.00 0.00 0.00 80 1013.3
20260901031013 73 224 0.0 0.0 0.00 0.00 0.00 79 1013.4
20260901030512 73 224 0.0 0.0 0.00 0.00 0.00 79 1013.3
20260901030007 74 224 0.0 0.0 0.00 0.00 0.00 78 1013.3
20260901025507 74 224 0.0 0.0 0.00 0.00 0.00 77 1013.1
20260901025001 74 224 0.0 0.0 0.00 0.00 0.00 77 1013.1
20260901024456 75 224 0.0 0.0 0.00 0.00 0.00 76 1013.1
20260901023955 76 224 0.0 0.0 0.00 0.00 0.00 74 1013.0
20260901023449 76 224 0.0 1.0 0.00 0.00 0.00 73 1013.2
20260901022944 76 224 1.0 2.0 0.00 0.00 0.00 73 1013.0
20260901022440 77 222 1.0 1.0 0.00 0.00 0.00 72 1013.1
20260901021934 77 222 0.0 0.0 0.00 0.00 0.00 72 1012.8
20260901021430 77 222 1.0 2.0 0.00 0.00 0.00 71 1012.8
20260901020925 77 217 0.0 0.0 0.00 0.00 0.00 71 1013.0
20260901020421 77 217 0.0 0.0 0.00 0.00 0.00 71 1013.0
20260901015919 77 216 0.0 0.0 0.00 0.00 0.00 71 1012.9
20260901015416 77 216 0.0 0.0 0.00 0.00 0.00 71 1012.8
20260901014915 78 216 0.0 0.0 0.00 0.00 0.00 70 1012.8
20260901014412 78 216 0.0 0.0 0.00 0.00 0.00 70 1012.6
20260901013907 78 222 0.0 0.0 0.00 0.00 0.00 69 1012.7
20260901013403 78 222 0.0 0.0 0.00 0.00 0.00 69 1012.8
20260901012858 79 223 1.0 2.0 0.00 0.00 0.00 67 1012.6
20260901012353 79 223 0.0 0.0 0.00 0.00 0.00 66 1012.4
20260901011849 80 222 0.0 0.0 0.00 0.00 0.00 65 1012.5
20260901011344 80 222 1.0 1.0 0.00 0.00 0.00 63 1012.6
20260901010843 80 222 0.0 0.0 0.00 0.00 0.00 62 1012.2
20260901010337 80 222 0.0 1.0 0.00 0.00 0.00 61 1012.2
20260901005836 81 222 1.0 2.0 0.00 0.00 0.00 60 1012.4
20260901005331 81 220 1.0 2.0 0.00 0.00 0.00 60 1012.2
20260901004827 81 214 0.0 0.0 0.00 0.00 0.00 60 1012.2
20260901004320 81 214 0.0 0.0 0.00 0.00 0.00 60 1012.2
20260901003815 82 214 0.0 0.0 0.00 0.00 0.00 58 1012.3
20260901003310 83 214 0.0 0.0 0.00 0.00 0.00 57 1012.1
20260901002808 83 214 0.0 0.0 0.00 0.00 0.00 56 1012.0
20260901002305 84 214 1.0 1.0 0.00 0.00 0.00 54 1012.1
20260901001758 84 230 0.0 2.0 0.00 0.00 0.00 54 1012.1
20260901001254 85 224 1.0 2.0 0.00 0.00 0.00 53 1012.1
20260901000743 85 253 0.0 1.0 0.00 0.00 0.00 53 1012.3
20260901000240 85 237 1.0 1.0 0.00 0.00 0.00 53 1012.0
20260831235732 85 269 1.0 2.0 0.00 0.00 0.00 53 1012.0
20260831235228 86 234 1.0 2.0 0.00 0.00 0.00 52 1011.9
20260831234727 86 213 1.0 2.0 0.00 0.00 0.00 51 1012.2
20260831234222 86 247 1.0 3.0 0.00 0.00 0.00 51 1011.9
20260831233717 86 220 0.0 1.0 0.00 0.00 0.00 51 1012.0
20260831233213 87 251 2.0 2.0 0.00 0.00 0.00 51 1011.9
20260831232712 87 267 2.0 2.0 0.00 0.00 0.00 50 1012.0
20260831232209 87 269 3.0 3.0 0.00 0.00 0.00 49 1011.9
20260831231705 88 233 3.0 5.0 0.00 0.00 0.00 49 1012.0
20260831231201 88 274 3.0 3.0 0.00 0.00 0.00 49 1011.8
20260831230701 88 309 3.0 3.0 0.00 0.00 0.00 49 1011.8
20260831230156 88 234 3.0 5.0 0.00 0.00 0.00 48 1011.8
20260831225655 88 242 2.0 5.0 0.00 0.00 0.00 49 1011.9
20260831225150 88 253 2.0 3.0 0.00 0.00 0.00 48 1011.8
20260831224645 89 300 3.0 5.0 0.00 0.00 0.00 48 1011.7
20260831224141 90 338 3.0 5.0 0.00 0.00 0.00 46 1011.8
20260831223636 91 217 0.0 1.0 0.00 0.00 0.00 43 1011.7
20260831223133 90 208 2.0 5.0 0.00 0.00 0.00 44 1011.6
20260831222627 90 299 2.0 5.0 0.00 0.00 0.00 44 1011.8
20260831222123 90 249 2.0 2.0 0.00 0.00 0.00 44 1011.6
20260831221619 90 262 2.0 5.0 0.00 0.00 0.00 45 1011.5
20260831221114 91 216 1.0 3.0 0.00 0.00 0.00 44 1011.4
20260831220608 92 238 3.0 6.0 0.00 0.00 0.00 45 1011.4
20260831220104 92 230 1.0 2.0 0.00 0.00 0.00 44 1011.6
20260831215559 91 246 2.0 5.0 0.00 0.00 0.00 45 1011.6
20260831215055 91 253 1.0 2.0 0.00 0.00 0.00 45 1011.5
20260831214547 90 238 3.0 3.0 0.00 0.00 0.00 45 1011.4
20260831214042 91 244 3.0 5.0 0.00 0.00 0.00 44 1011.4
20260831213539 93 203 2.0 5.0 0.00 0.00 0.00 41 1011.3
20260831213034 93 210 1.0 2.0 0.00 0.00 0.00 43 1011.3
20260831212530 94 220 1.0 5.0 0.00 0.00 0.00 43 1011.3
20260831212025 93 217 2.0 5.0 0.00 0.00 0.00 42 1011.4
20260831211520 92 249 1.0 3.0 0.00 0.00 0.00 43 1011.4
20260831211019 93 264 4.0 6.0 0.00 0.00 0.00 41 1011.2
20260831210514 93 236 1.0 2.0 0.00 0.00 0.00 43 1011.2
20260831210010 93 226 0.0 1.0 0.00 0.00 0.00 42 1011.1
20260831205505 94 256 2.0 2.0 0.00 0.00 0.00 41 1011.4
20260831205001 92 217 0.0 1.0 0.00 0.00 0.00 41 1011.2
20260831204500 92 144 1.0 3.0 0.00 0.00 0.00 44 1011.2
20260831203954 92 230 2.0 2.0 0.00 0.00 0.00 40 1011.2
20260831203453 91 155 0.0 2.0 0.00 0.00 0.00 44 1011.1
20260831202951 92 330 3.0 3.0 0.00 0.00 0.00 42 1011.3
20260831202447 94 357 6.0 8.0 0.00 0.00 0.00 39 1011.5
20260831201946 92 244 3.0 3.0 0.00 0.00 0.00 39 1011.5
20260831201445 94 233 1.0 2.0 0.00 0.00 0.00 41 1011.5
20260831200941 92 236 1.0 5.0 0.00 0.00 0.00 43 1011.3
20260831200436 91 207 2.0 2.0 0.00 0.00 0.00 44 1011.3
20260831195936 91 119 2.0 2.0 0.00 0.00 0.00 45 1011.3
20260831195431 91 320 4.0 6.0 0.00 0.00 0.00 43 1011.2
20260831194926 90 8 3.0 5.0 0.00 0.00 0.00 47 1011.3
20260831194422 91 88 2.0 5.0 0.00 0.00 0.00 45 1011.2
20260831193921 91 24 3.0 5.0 0.00 0.00 0.00 43 1011.2
20260831193416 90 181 0.0 3.0 0.00 0.00 0.00 45 1011.1
20260831192912 90 217 3.0 3.0 0.00 0.00 0.00 44 1011.0